Location: Altmatt
(47.1333°N, 8.7000°E)
Time: 08:42:54
(UTC+00:00)

NOSS 0 Rocket - Pass Details

Date: 13 July 2020
Orbit: 934 x 955 km, 70.0° (Epoch: 04 August)

Event Time Altitude Azimuth Distance (km) Brightness Sun altitude
Rises 20:41:33 0° 214° (SW) 3,581 6.8 -11.3°
Reaches altitude 10° 20:44:05 10° 217° (SW) 2,642 6.1 -11.6°
Maximum altitude 20:50:11 70° 301° (WNW) 997 4.3 -12.3°
Drops below altitude 10° 20:56:23 10° 25° (NNE) 2,670 6.7 -12.9°
Sets 20:58:57 0° 28° (NNE) 3,622 7.3 -13.1°
